Lid_Strength_Index
-0 -0 -0 -0 0 0 0 0 0 1 1 1 1 2 2 2 2 2 5 5 3 -0 0 3 4 5 6 7 8 9 13 14 12 12 10 7 8 7 5 6 5 5 5 4 2
-0 -0 -0 -0 0 0 0 0 0 1 1 1 2 2 2 2 3 4 3 -0 -0 -0 4 5 6 5 8 9 9 11 14 13 9 10 10 9 9 8 7 6 6 6 4 3 3
0 0 -0 -0 0 0 0 1 1 1 1 1 2 2 2 3 4 6 1 0 0 1 4 4 5 6 8 9 9 11 13 10 9 8 9 10 8 7 8 7 6 7 6 4 4
-0 -0 0 0 0 0 1 1 1 0 1 1 2 2 3 3 10 6 1 1 1 3 4 5 6 8 9 10 8 11 9 9 9 8 9 9 8 8 8 7 5 4 4 4 4
1 1 1 0 0 1 1 1 1 1 1 2 2 2 3 5 5 2 -0 1 3 4 5 6 6 8 9 8 8 10 10 9 9 9 9 8 9 9 9 7 6 6 4 5 4
2 2 1 1 1 1 1 1 1 1 1 2 3 3 4 9 1 2 2 2 3 4 5 5 5 5 7 8 9 8 8 8 8 9 8 8 9 10 9 7 7 7 5 5 4
2 2 2 2 2 2 2 2 2 1 1 3 3 3 4 6 1 1 1 2 2 3 4 3 3 5 6 8 7 8 10 8 8 8 9 8 10 10 8 8 9 8 5 5 4
2 3 3 3 2 2 2 2 2 2 3 3 4 5 7 1 1 1 2 2 1 1 2 2 2 4 6 6 8 9 9 12 9 8 8 10 12 10 9 9 9 9 8 5 4
2 3 3 3 3 3 3 3 3 3 4 4 6 6 8 2 3 2 2 3 3 3 3 2 4 6 7 10 12 11 14 12 11 8 8 10 11 9 8 8 9 9 8 7 5
3 3 3 4 4 4 4 4 4 5 5 5 5 8 7 7 3 3 3 3 4 5 5 6 8 10 11 12 16 13 13 13 12 10 9 10 11 10 9 9 9 9 9 8 6
2 3 3 3 4 4 5 6 7 7 6 7 7 7 5 3 3 4 4 5 5 7 11 9 12 14 12 10 10 11 11 12 10 9 9 10 10 9 8 9 9 9 9 8 7
2 3 3 3 4 4 5 6 5 7 8 5 5 5 4 4 6 5 4 7 8 11 10 11 13 10 9 9 9 10 11 11 10 8 9 10 10 10 8 8 8 8 8 8 8
3 3 3 4 4 4 5 4 5 4 8 6 5 6 5 4 6 6 5 7 9 9 9 11 9 7 8 9 10 10 11 11 11 9 10 11 11 11 9 8 7 7 7 7 7
3 3 4 4 6 5 6 5 5 4 12 10 8 6 4 4 7 4 4 5 8 10 9 10 8 8 9 9 9 12 9 9 10 12 15 11 16 12 10 9 8 8 8 7 7
2 3 4 3 5 6 5 5 5 5 20 9 8 4 4 7 6 6 3 5 9 9 9 11 9 9 10 9 8 10 9 9 10 12 13 13 14 13 9 9 9 8 7 7 7
3 3 5 3 4 3 4 4 5 14 19 11 8 9 8 7 7 7 6 5 5 8 8 9 7 8 9 8 9 9 10 10 10 12 18 13 13 14 12 10 9 8 7 7 7
3 3 3 3 5 4 4 6 15 18 10 11 11 9 9 10 9 9 9 10 11 14 14 10 10 8 7 10 9 10 12 17 19 19 19 12 13 12 9 8 8 8 8 7 7
3 4 3 2 3 3 5 11 17 13 12 8 9 9 11 9 9 9 10 12 9 10 12 15 16 10 7 9 11 10 11 17 21 21 18 12 16 13 8 7 7 8 9 9 8
3 4 4 3 2 3 8 15 15 12 10 10 8 11 12 10 10 10 10 11 10 9 13 13 13 8 8 7 8 11 13 10 15 15 19 16 13 9 8 8 7 8 9 10 9
4 6 7 7 2 5 10 13 12 9 8 8 12 10 13 11 11 11 11 9 10 8 8 10 14 9 9 9 9 10 9 15 15 21 22 17 15 15 11 10 8 8 9 9 8
5 9 8 7 4 7 14 13 10 8 7 9 10 11 10 11 10 11 11 9 8 9 9 10 12 12 9 11 12 12 12 11 13 15 20 20 17 10 10 9 9 9 8 9 8
9 13 9 7 10 13 13 10 8 8 8 9 9 9 10 11 10 10 11 9 7 8 10 9 11 15 12 8 8 9 11 11 17 17 16 17 17 8 9 8 8 9 9 9 7
13 12 8 8 14 14 11 9 8 9 10 10 10 9 9 11 13 10 10 7 7 8 10 10 13 17 15 11 9 11 10 10 11 12 17 19 17 8 8 9 9 9 9 9 8
12 14 14 12 12 12 13 12 11 8 9 9 10 9 10 11 10 10 11 8 6 9 7 8 12 14 17 14 12 13 12 11 11 16 16 15 13 10 10 10 9 9 9 9 8
11 13 11 15 14 12 11 11 12 12 9 9 11 10 10 12 11 11 10 9 8 7 9 10 16 14 12 11 11 11 11 11 12 12 15 12 12 11 9 9 9 8 8 7 7
13 12 10 11 11 12 11 12 11 10 10 10 11 9 8 11 10 11 10 10 10 9 10 10 16 15 15 11 11 12 12 11 11 10 10 11 12 9 8 8 8 7 7 7 6
8 7 9 10 10 11 11 11 10 9 9 8 8 9 10 11 10 9 8 7 8 9 10 11 13 14 17 12 13 16 13 11 10 10 10 13 11 8 8 7 7 7 6 6 6